This demonstration page uses our WeatherBlox Daily Observations layout. Learn more.

Left ArrowRight Arrow

Hourly Observations for February 15, 2017

Temp ( °F °C ) Dew Point ( °F °C ) Humidity (%) Winds ( mph kmh ) Pressure ( in mb ) Visibility ( mi km ) Precip ( " mm )
12:51 am 00:51 Clear 46 7.8 38 3.3 73 73 ESE 7 11 30.14 1021 10 16 N/A
1:51 am 01:51 Clear 43 6.1 37 2.8 80 80 ESE 5 7 30.14 1021 10 16 N/A
2:51 am 02:51 Clear 47 8.3 37 2.8 69 69 E 10 17 30.14 1021 10 16 N/A
3:51 am 03:51 Clear 46 7.8 37 2.8 71 71 E 13 20 30.14 1021 10 16 N/A
4:51 am 04:51 Clear 46 7.8 34 1.1 63 63 E 13 20 30.14 1021 10 16 N/A
5:51 am 05:51 Clear 45 7.2 33 0.6 63 63 E 14 22 30.16 1021 10 16 N/A
6:51 am 06:51 Clear 43 6.1 32 undefined 65 65 ESE 9 15 30.19 1022 10 16 N/A
7:51 am 07:51 Sunny 43 6.1 33 0.6 68 68 SSE 7 11 30.22 1023 10 16 N/A
8:51 am 08:51 Sunny 49 9.4 33 0.6 55 55 ESE 8 13 30.23 1024 10 16 N/A
9:51 am 09:51 Sunny 51 10.6 33 0.6 50 50 ESE 14 22 30.22 1023 10 16 N/A
10:51 am 10:51 Sunny 54 12.2 31 -0.6 42 42 SE 13 20 30.20 1023 10 16 N/A
11:51 am 11:51 Sunny 57 13.9 30 -1.1 36 36 ESE 16 26 30.18 1022 10 16 N/A
12:51 pm 12:51 Sunny 58 14.4 30 -1.1 35 35 SE 15 24 30.15 1021 10 16 N/A
1:51 pm 13:51 Sunny 60 15.6 30 -1.1 32 32 ESE 10 17 30.12 1020 10 16 N/A
2:51 pm 14:51 Sunny 60 15.6 29 -1.7 31 31 ESE 14 22 30.09 1019 10 16 N/A
3:51 pm 15:51 Sunny 61 16.1 29 -1.7 30 30 SSE 12 19 30.06 1018 10 16 N/A
4:51 pm 16:51 Sunny 60 15.6 28 -2.2 30 30 SSE 12 19 30.04 1017 10 16 N/A
5:51 pm 17:51 Sunny 58 14.4 28 -2.2 32 32 S 9 15 30.05 1018 10 16 N/A
6:51 pm 18:51 Clear 53 11.7 29 -1.7 40 40 SSE 8 13 30.09 1019 10 16 N/A
7:51 pm 19:51 Clear 50 10 29 -1.7 44 44 SE 6 9 30.11 1020 10 16 N/A
8:51 pm 20:51 Clear 47 8.3 31 -0.6 54 54 ESE 6 9 30.11 1020 10 16 N/A
9:51 pm 21:51 Clear 45 7.2 31 -0.6 58 58 SE 6 9 30.12 1020 10 16 N/A
10:51 pm 22:51 Clear 43 6.1 31 -0.6 63 63 SE 5 7 30.12 1020 10 16 N/A
11:51 pm 23:51 Clear 42 5.6 32 undefined 68 68 E 8 13 30.11 1020 10 16 N/A

Powered by AerisWeather